Location: Gälforsberget
(66.6500°N, 22.4167°E)
Time: 21:33:13
(UTC+00:00)

Cosmos 2242 Rocket - Pass Details

Date: 11 April 2026
Orbit: 612 x 646 km, 82.5° (Epoch: 16 May)

Event Time Altitude Azimuth Distance (km) Brightness Sun altitude
Rises 18:56:22 0° 341° (NNW) 2,970 8.1 -5.5°
Reaches altitude 10° 18:58:39 10° 342° (NNW) 2,053 7.2 -5.7°
Maximum altitude 19:03:13 86° 72° (ENE) 650 3.7 -6.0°
Drops below altitude 10° 19:07:43 10° 161° (SSE) 2,021 5.7 -6.4°
Enters shadow 19:09:02 - 162° (SSE) 2,555 6.2 -6.5°
